NOAA NWS Hourly Roundups by Site

Regional Weather Roundup for Bismarck, ND

To Select Another Site Choose from List

Select Site:  

000
ASUS43 KBIS 180410
RWRBIS

NWR BROADCAST TEXT
NATIONAL WEATHER SERVICE BISMARCK ND
1100 PM CDT MON MAY 17 2021

NOTE: "FAIR" INDICATES FEW OR NO CLOUDS BELOW 12,000 FEET WITH NO
SIGNIFICANT WEATHER AND/OR OBSTRUCTIONS TO VISIBILITY.


CITY           SKY/WX    TMP DP  RH WIND       PRES   REMARKS
WILLISTON      CLEAR     66  46  48 S14       29.84S
MINOT          CLEAR     68  38  33 S13       29.90R
MINOT AFB      CLEAR     65  38  37 S13       29.88R
BISMARCK       CLEAR     66  49  54 S10       29.97R
DICKINSON      CLEAR     58  45  62 S14       29.90S
GARRISON         N/A     65  40  39 S13       29.92R
HETTINGER ARPT CLEAR     59  49  69 SE16G25   29.94S
JAMESTOWN      CLEAR     63  42  46 S9        29.99S
CARRINGTON     FAIR      63  37  39 S12       30.01R
HAZEN            N/A     64  45  48 S12       29.95R
MANDAN         CLOUDY    61  50  67 S12       29.98R
OAKES          CLOUDY    57  46  67 SE9       30.03R
RUGBY          FAIR      66  37  34 S13       29.93R
STANLEY        FAIR      61  41  48 S12       29.90R
TIOGA          FAIR      66  41  39 S16       29.88S
WATFORD CITY   FAIR      66  46  48 S12       29.88R
$$

CITY           SKY/WX    TMP DP  RH WIND       PRES   REMARKS
GRAND FORKS    CLEAR     66  34  30 S10       29.99R
GRAND FORKS AF CLEAR     62  41  46 S8        29.99R
DEVILS LAKE    CLEAR     68  39  34 S16       29.98R
FARGO          CLEAR     71  41  33 SE9       30.02S
CANDO          FAIR      64  39  39 S14       29.97S
CAVALIER       MOCLDY    68  39  34 S10       29.96R
GRAFTON        FAIR      64  41  42 S9        29.99S
GWINNER        MOCLDY    63  50  63 S8        30.03R
LANGDON        FAIR      64  37  36 S15       29.98R
ROLLA          FAIR      64  37  36 S13       29.94S
WALHALLA       FAIR      72  39  30 S9        29.95S
$$

CITY           SKY/WX    TMP DP  RH WIND       PRES   REMARKS
ABERDEEN       CLEAR     56  47  71 S7        30.02R
MOBRIDGE       CLEAR     59  51  75 SE9       29.97R
BUFFALO          N/A     61  48  62 SE20      29.89R
RAPID CITY     PTCLDY    53  50  89 SE6       29.95R
GLASGOW        PTCLDY    71  42  35 SE14      29.71R
SIDNEY         CLEAR     67  49  52 S13       29.83R
WOLF POINT     CLEAR     72  43  35 S12G29    29.74R
GLENDIVE       CLEAR     68  48  48 SE13G21   29.83S
MILES CITY     CLEAR     68  46  45 SE18G25   29.79R
BAKER          CLEAR     59  46  62 SE13      29.89R
$$

CITY           SKY/WX    TMP DP  RH WIND       PRES   REMARKS
BILLINGS       CLEAR     71  43  36 SE8       29.77S
GREAT FALLS    CLEAR     57  36  45 SW10      29.73R
REGINA         PTCLDY    72  39  30 S16G22    29.68S
ESTEVAN        CLEAR     68  45  42 S15G21    29.81R
$$



 

View Past Reports for Bismarck, ND.

Products Courtesy of NOAA-NWS
NWS Information Parsing Script by Ken True at Saratoga Weather - Script by SE Lincoln Weather.